Location: Unspecified
(0.0000°N, 0.0000°E)
Time: 05:22:20
(UTC+00:00)

KAITUO 1B - Pass Details

Date: 26 March 2019
Orbit: 497 x 517 km, 97.4° (Epoch: 17 June)

Event Time Altitude Azimuth Distance (km) Brightness Sun altitude
Rises 05:30:06 0° 27° (NNE) 2,580 ? -8.9°
Reaches altitude 10° 05:32:19 10° 38° (NE) 1,704 ? -8.4°
Maximum altitude 05:35:36 31° 101° (ESE) 897 ? -7.6°
Drops below altitude 10° 05:38:55 10° 165° (SSE) 1,723 ? -6.7°
Sets 05:41:10 0° 175° (S) 2,614 ? -6.2°
